• Join FlightAware (Why Join?)
  • Login
  • US Flag 
11:30PM EST


 

Airport Tracker/Info


-or-


 

Live Flight TrackerFlight Track Log ✈ GJS3710 ✈ 26-Apr-2013 ✈ KAUS - KORD

Flight Track Log - Related Links

Times and Time Zones

All times are in EDT time to prevent confusion due to time zone crossing. See the GJS3710 flight status page for this flight to view local times or setup timezone preferences in your user account.

Time Position Orientation Groundspeed Altitude Reporting Facility
EDT Latitude Longitude Course Direction KTS MPH feet Rate Location/Type
04:38PM 30.1639 -97.7533 326° Northwest 242 278 4,900  Level Houston Center
04:39PM 30.5520 -97.6497 323° Northwest  Level FlightAware Approximate
04:39PM 30.2367 -97.7861 339° North 276 318 7,500  Level Houston Center
04:40PM 30.6420 -97.7284 323° Northwest  Level FlightAware Approximate
04:40PM 30.3136 -97.8139 343° North 284 327 10,200  Level Houston Center
04:41PM 30.7363 -97.7986 326° Northwest  Level FlightAware Approximate
04:41PM 30.3958 -97.8444 342° North 298 343 11,700  Level Houston Center
04:42PM 30.8349 -97.8751 326° Northwest  Level FlightAware Approximate
04:42PM 30.4894 -97.8800 342° North 335 386 13,100  Level Houston Center
04:43PM 30.9335 -97.9518 326° Northwest  Level FlightAware Approximate
04:43PM 30.6094 -97.9256 342° North 374 430 14,600  Level Houston Center
04:44PM 30.7175 -97.9658 342° North 393 452 16,400 2,177 Climbing Houston Center
04:45PM 30.8244 -98.0056 342° North 397 457 19,100 2,419 Climbing Houston Center
04:46PM 30.9278 -98.0453 342° North 379 436 21,400 1,869 Climbing Fort Worth Center
04:47PM 31.0278 -98.0847 341° North 379 436 22,900 1,700 Climbing Fort Worth Center
04:48PM 31.1297 -98.1244 342° North 379 436 24,800 1,950 Climbing Fort Worth Center
04:49PM 31.2342 -98.1178 North 379 436 26,800 1,500 Climbing Fort Worth Center
04:50PM 31.3369 -98.0603 26° Northeast 379 436 27,800 1,050 Climbing Fort Worth Center
04:51PM 31.4394 -98.0025 26° Northeast 401 461 28,900 950 Climbing Fort Worth Center
04:52PM 31.5358 -97.9494 25° Northeast 407 468 29,700 900 Climbing Fort Worth Center
04:53PM 31.6444 -97.8867 26° Northeast 420 483 30,700 1,050 Climbing Fort Worth Center
04:54PM 31.7533 -97.8311 23° Northeast 428 493 31,800 1,050 Climbing Fort Worth Center
04:55PM 31.8642 -97.7656 27° Northeast 428 493 32,800 750 Climbing Fort Worth Center
04:56PM 31.9833 -97.6975 26° Northeast 427 491 33,300 500 Climbing Fort Worth Center
04:57PM 32.1003 -97.6317 25° Northeast 443 510 33,800 500 Climbing Fort Worth Center
04:58PM 32.2028 -97.5731 26° Northeast 450 518 34,300 700 Climbing Fort Worth Center
04:59PM 32.3239 -97.5067 25° Northeast 461 531 35,200 350 Climbing Fort Worth Center
05:00PM 32.4408 -97.4406 26° Northeast 467 537 35,000 -100 Descending Fort Worth Center
05:01PM 32.5600 -97.3714 26° Northeast 467 537 35,000  Level Fort Worth Center
05:02PM 32.6767 -97.3022 27° Northeast 462 532 35,000  Level Fort Worth Center
05:03PM 32.7956 -97.2331 26° Northeast 467 537 35,000  Level Fort Worth Center
05:04PM 32.9269 -97.1561 26° Northeast 472 543 35,000  Level Fort Worth Center
05:05PM 33.0375 -97.0764 31° Northeast 484 557 35,000  Level Fort Worth Center
05:06PM 33.1542 -96.9967 30° Northeast 491 565 35,000  Level Fort Worth Center
05:07PM 33.2708 -96.9164 30° Northeast 474 545 35,000  Level Fort Worth Center
05:08PM 33.3853 -96.8364 30° Northeast 480 552 35,000  Level Fort Worth Center
05:09PM 33.5058 -96.7508 31° Northeast 490 564 35,000  Level Fort Worth Center
05:10PM 33.6244 -96.6675 30° Northeast 490 564 35,000  Level Fort Worth Center
05:11PM 33.7553 -96.5742 31° Northeast 490 564 35,000  Level Fort Worth Center
05:12PM 33.8778 -96.4878 30° Northeast 495 570 35,000 500 Level Fort Worth Center
05:13PM 33.9981 -96.4014 31° Northeast 495 570 36,000 950 Climbing Fort Worth Center
05:14PM 34.0936 -96.3325 31° Northeast 495 570 36,900 500 Climbing Fort Worth Center
05:15PM 34.2158 -96.2431 31° Northeast 482 555 37,000 50 Climbing Fort Worth Center
05:16PM 34.3486 -96.1458 31° Northeast 493 567 37,000  Level Fort Worth Center
05:17PM 34.4667 -96.0608 31° Northeast 493 567 37,000  Level Fort Worth Center
05:18PM 34.5803 -95.9783 31° Northeast 487 560 37,000 250 Level Fort Worth Center
05:19PM 34.6961 -95.8931 31° Northeast 487 560 37,500 600 Climbing Fort Worth Center
05:20PM 34.8119 -95.8100 30° Northeast 487 560 38,200 650 Climbing Fort Worth Center
05:21PM 34.9233 -95.7194 34° Northeast 487 560 38,800 400 Climbing Fort Worth Center
05:22PM 35.0264 -95.6183 39° Northeast 482 555 39,000 100 Climbing Fort Worth Center
05:23PM 35.1314 -95.5222 37° Northeast 476 548 39,000  Level Fort Worth Center
05:25PM 35.3078 -95.3542 38° Northeast 500 575 39,000  Level Memphis Center
05:26PM 35.4161 -95.2536 37° Northeast 500 575 39,000  Level Memphis Center
05:27PM 35.5244 -95.1478 38° Northeast 495 570 39,000  Level Memphis Center
05:28PM 35.6328 -95.0417 39° Northeast 495 570 39,000  Level Memphis Center
05:29PM 35.7408 -94.9378 38° Northeast 495 570 39,000  Level Memphis Center
05:30PM 35.8489 -94.8336 38° Northeast 495 570 39,000  Level Memphis Center
05:31PM 35.9592 -94.7267 38° Northeast 495 570 39,000  Level Memphis Center
05:32PM 36.0650 -94.6194 39° Northeast 495 570 39,000  Level Memphis Center
05:33PM 36.1747 -94.5144 38° Northeast 495 570 39,000  Level Memphis Center
05:34PM 36.2806 -94.4067 39° Northeast 490 564 39,000  Level Memphis Center
05:35PM 36.4286 -94.2650 38° Northeast 493 567 39,000  Level Kansas City Center
05:36PM 36.5358 -94.1589 38° Northeast 493 567 39,000  Level Kansas City Center
05:37PM 36.6422 -94.0536 38° Northeast 491 565 39,000  Level Kansas City Center
05:38PM 36.7494 -93.9472 38° Northeast 491 565 39,000  Level Kansas City Center
05:39PM 36.8617 -93.8539 34° Northeast 485 558 39,000  Level Kansas City Center
05:40PM 36.9806 -93.7878 24° Northeast 470 541 39,000  Level Kansas City Center
05:41PM 37.1097 -93.7181 23° Northeast 472 543 39,000  Level Kansas City Center
05:42PM 37.2317 -93.6494 24° Northeast 476 548 39,000  Level Kansas City Center
05:43PM 37.3778 -93.5683 24° Northeast 476 548 39,000  Level Kansas City Center
05:44PM 37.4975 -93.4928 27° Northeast 479 551 39,000  Level Kansas City Center
05:45PM 37.6183 -93.4183 26° Northeast 479 551 39,000  Level Kansas City Center
05:46PM 37.7211 -93.3053 41° Northeast 483 556 39,000  Level Kansas City Center
05:47PM 37.8264 -93.1925 40° Northeast 490 564 39,000  Level Kansas City Center
05:48PM 37.9314 -93.0803 40° Northeast 490 564 39,000  Level Kansas City Center
05:50PM 38.0381 -92.9658 40° Northeast 495 570 39,000  Level Kansas City Center
05:51PM 38.1433 -92.8494 41° Northeast 495 570 39,000  Level Kansas City Center
05:52PM 38.2503 -92.7347 40° Northeast 495 570 39,000  Level Kansas City Center
05:53PM 38.3767 -92.5925 41° Northeast 497 572 39,000  Level Kansas City Center
05:54PM 38.4833 -92.4742 41° Northeast 499 574 39,000  Level Kansas City Center
05:55PM 38.5892 -92.3575 41° Northeast 499 574 39,000  Level Kansas City Center
05:56PM 38.6933 -92.2389 42° Northeast 498 573 39,000  Level Kansas City Center
05:57PM 38.7983 -92.1217 41° Northeast 498 573 39,000  Level Kansas City Center
05:58PM 38.9025 -92.0044 41° Northeast 496 571 39,000  Level Kansas City Center
05:59PM 39.0078 -91.8847 41° Northeast 499 574 39,000  Level Kansas City Center
06:00PM 39.1125 -91.7664 41° Northeast 499 574 39,000 -48 Level Kansas City Center
06:01PM 39.2200 -91.6442 41° Northeast 499 574 38,900 -624 Descending Kansas City Center
06:02PM 39.3272 -91.5231 41° Northeast 506 582 37,700 -1,065 Descending Kansas City Center
06:03PM 39.4561 -91.3753 41° Northeast 512 589 36,700 -1,024 Descending Kansas City Center
06:04PM 39.5656 -91.2494 42° Northeast 518 596 35,600 -945 Descending Kansas City Center
06:05PM 39.6767 -91.1214 42° Northeast 524 603 34,700 -919 Descending Kansas City Center
06:06PM 39.7850 -91.0039 40° Northeast 522 601 33,700 -823 Descending Kansas City Center
06:07PM 39.9053 -90.8858 37° Northeast 512 589 33,000 -339 Descending Kansas City Center
06:08PM 40.0167 -90.7728 38° Northeast 508 585 33,000  Level Kansas City Center
06:09PM 40.1286 -90.6572 38° Northeast 511 588 33,000  Level Kansas City Center
06:10PM 40.1869 -90.6000 37° Northeast 516 594 33,000  Level Chicago Center
06:11PM 40.3111 -90.4731 38° Northeast 516 594 33,000  Level Chicago Center
06:12PM 40.4256 -90.3553 38° Northeast 521 600 33,000 -339 Level Chicago Center
06:13PM 40.5350 -90.2431 38° Northeast 517 595 32,300 -1,113 Descending Chicago Center
06:14PM 40.6461 -90.1286 38° Northeast 510 587 30,700 -1,694 Descending Chicago Center
06:15PM 40.7758 -89.9942 38° Northeast 496 571 28,800 -1,887 Descending Chicago Center
06:16PM 40.8803 -89.8869 38° Northeast 477 549 26,800 -1,935 Descending Chicago Center
06:17PM 40.9756 -89.7864 39° Northeast 444 511 24,800 -1,355 Descending Chicago Center
06:18PM 41.0603 -89.6958 39° Northeast 423 487 24,000 -387 Descending Chicago Center
06:19PM 41.1506 -89.5983 39° Northeast 417 480 24,000 -919 Level Chicago Center
06:20PM 41.2239 -89.4317 60° Northeast 435 501 22,100 -2,016 Descending Chicago Center
06:21PM 41.2800 -89.2947 61° Northeast 424 488 19,800 -2,016 Descending Chicago Center
06:22PM 41.3325 -89.1611 62° Northeast 398 458 17,900 -1,984 Descending Chicago Center
06:23PM 41.3817 -89.0394 62° Northeast 379 436 15,700 -2,129 Descending Chicago Center
06:24PM 41.4294 -88.9219 61° Northeast 366 421 13,500 -1,887 Descending Chicago Center
06:25PM 41.4742 -88.8067 63° Northeast 352 405 11,800 -1,210 Descending Chicago Center
06:26PM 41.5253 -88.6767 62° Northeast 333 383 11,000 -387 Descending Chicago Center
06:27PM 41.5683 -88.5658 63° Northeast 334 384 11,000  Level Chicago Center
06:28PM 41.6153 -88.4567 60° Northeast 338 389 11,000 -339 Level Chicago Center
06:29PM 41.6742 -88.3558 52° Northeast 343 395 10,300 -532 Descending Chicago Center
06:30PM 41.7336 -88.2536 52° Northeast 348 400 9,900 -581 Descending Chicago Center
06:31PM 41.7864 -88.1642 52° Northeast 312 359 9,100 -774 Descending Chicago Center
06:32PM 41.8364 -88.0767 52° Northeast 298 343 8,300 -726 Descending Chicago Center
06:33PM 41.8833 -87.9594 62° Northeast 298 343 7,600 -623 Descending Chicago Center
06:34PM 41.9000 -87.9333 49° Northeast 258 297 7,500 -444 Descending Chicago TRACON
06:35PM 41.9167 -87.8667 71° East 221 254 7,000 -250 Descending Chicago TRACON
06:36PM 41.9500 -87.8000 56° Northeast 213 245 7,000  Level Chicago TRACON
06:37PM 41.9833 -87.7333 56° Northeast 210 242 7,000 -333 Level Chicago TRACON
06:38PM 42.0333 -87.6833 37° Northeast 210 242 6,300 -803 Descending Chicago TRACON
06:39PM 42.0833 -87.6500 26° Northeast 218 251 5,300 -939 Descending Chicago TRACON
06:40PM 42.1000 -87.7000 294° West 175 201 4,500 -1,000 Descending Chicago TRACON
06:41PM 42.0667 -87.7500 228° Southwest 168 193 3,400 -950 Descending Chicago TRACON
06:42PM 42.0500 -87.8000 246° West 153 176 2,600 -762 Descending Chicago TRACON
06:43PM 42.0167 -87.8333 217° Southwest 121 139 1,800 -667 Descending Chicago TRACON
06:44PM 41.9833 -87.8667 217° Southwest 123 142 1,200 -600 Descending Chicago TRACON